Regional Weather Roundup
Issued by NWS

Home | Current Version | Previous Version | Graphics & Text | Print | Product List | Glossary On
Versions: 1 2 3 4 5 6 7 8 9 10 11 12 13 14 15 16 17 18 19 20 21 22 23 24 25 26 27 28 29 30 31 32 33 34 35 36 37 38 39 40 41 42 43 44 45 46 47 48 49 50
000
ASUS43 KMKX 210310
RWRWI

WISCONSIN REGIONAL WEATHER ROUNDUP
NATIONAL WEATHER SERVICE MILWAUKEE/SULLIVAN WI
900 PM CST TUE FEB 20 2018

NOTE: "FAIR" INDICATES FEW OR NO CLOUDS BELOW 12,000 FEET WITH NO
SIGNIFICANT WEATHER AND/OR OBSTRUCTIONS TO VISIBILITY.

WIZ001-002-006>008-014>016-023>028-210400-
NORTHWEST WISCONSIN

CITY           SKY/WX    TMP DP  RH WIND       PRES   REMARKS
SUPERIOR ARPT  FAIR      11   4  72 W7        30.19R WCI   1
ASHLAND        FAIR      14   8  77 W9        30.15R WCI   2
HAYWARD        FAIR      14   8  77 CALM      30.14R
SIREN          FAIR      13   6  72 W5        30.20R WCI   5
CUMBERLAND     FAIR      12   5  73 W8        30.17R WCI   1
RICE LAKE      FAIR      15   9  77 W7        30.19R WCI   5
CHETEK         FAIR      15   9  78 W6        30.19R WCI   6
LADYSMITH      FAIR      16  11  79 W7        30.16R WCI   7
EAU CLAIRE     FAIR      17   9  70 W8        30.20R WCI   7
MENOMONIE      FAIR      18  10  73 W12       30.21R WCI   5
NEW RICHMOND   FAIR      14   4  65 W13       30.23R WCI   0
OSCEOLA        FAIR      14   4  65 W10       30.26R WCI   1
$$

WIZ003>005-009-010-017-018-210400-
NORTH CENTRAL WISCONSIN

CITY           SKY/WX    TMP DP  RH WIND       PRES   REMARKS
MANITOWISH WTR FLURRIES  14  12  90 W8G17     30.07R WCI   3
ARBOR VITAE    FLURRIES  18  15  86 NW12      30.07R WCI   5
WOODRUFF       FLURRIES  18  15  86 NW12      30.07R WCI   5
RHINELANDER    CLOUDY    20  16  84 W9        30.05R WCI   9
EAGLE RIVER    CLOUDY    19  18  93 W10       30.03R WCI   8
LAND O LAKES   FLURRIES  19  16  88 W10       30.05R WCI   7
PHILLIPS       FLURRIES  15  12  88 W3        30.10R
TOMAHAWK       CLOUDY    18  14  86 W9G17     30.09R WCI   7
MEDFORD        CLOUDY    16  11  82 NW10G18   30.10R WCI   3
MERRILL        CLOUDY    20  17  86 W14       30.10R WCI   7
$$

WIZ029-030-035-036-043>047-210400-
CENTRAL WISCONSIN

CITY           SKY/WX    TMP DP  RH WIND       PRES   REMARKS
WAUSAU         CLOUDY    20  17  88 W14       30.09R WCI   7
MOSINEE        CLOUDY    19  18  93 W10G17    30.12R WCI   8
MARSHFIELD     CLOUDY    19  13  77 NW18G28   30.12R WCI   4
STEVENS POINT  CLOUDY    20  17  89 W6G16     30.12R WCI  12
WAUPACA        FAIR      27  21  76 W12       30.12R WCI  17
WAUTOMA        CLOUDY    25  21  85 W17       30.13R WCI  12
WISC RAPIDS    CLOUDY    21  15  78 NW16G26   30.14R WCI   7
CAMP DOUGLAS   CLOUDY    23  19  86 W16G23    30.17R WCI  10
$$

WIZ011>013-019>022-031-037>040-048>050-210400-
NORTHEAST WISCONSIN

CITY           SKY/WX    TMP DP  RH WIND       PRES   REMARKS
ANTIGO         CLOUDY    22  20  94 NW9       30.05R WCI  11
SHAWANO        CLOUDY    29  23  80 W8        30.08R WCI  21
OCONTO         CLOUDY    29  25  84 W10G17    30.06R WCI  20
STURGEON BAY   CLOUDY    30  27  88 W13       30.04R WCI  20
GREEN BAY      CLOUDY    29  22  75 W15       30.07R WCI  18
MANITOWOC      CLOUDY    30  25  81 NW20      30.07R WCI  17
APPLETON       CLOUDY    27  19  74 NW17G23   30.06R WCI  14
CLINTONVILLE   CLOUDY    27  21  80 W12       30.09R WCI  16
OSHKOSH        CLOUDY    27  21  78 NW20G25   30.09R WCI  13
$$

WIZ032>034-041-042-053>061-210400-
SOUTHWEST WISCONSIN

CITY           SKY/WX    TMP DP  RH WIND       PRES   REMARKS
LA CROSSE      CLOUDY    21  15  78 NW14      30.24R WCI   8
SPARTA         CLOUDY    21  17  86 NW7       30.22R WCI  12
VIROQUA        CLOUDY    20  19  95 NW10      30.17R WCI   8
BOSCOBEL       MOCLDY    25  16  68 W14       30.21R WCI  13
PRAIRIE DU CHI MOCLDY    22  14  70 W14G20    30.23R WCI  10
PLATTEVILLE    CLOUDY    25  22  88 NW14G20   30.17R WCI  13
$$

WIZ056-057-062-063-064-067-068-210400-
SOUTH CENTRAL WISCONSIN

CITY           SKY/WX    TMP DP  RH WIND       PRES   REMARKS
REEDSBURG      CLOUDY    24  20  84 NW13      30.15R WCI  13
BARABOO/DELLS  CLOUDY    25  19  78 W15G22    30.14R WCI  12
LONE ROCK      CLOUDY    27  21  78 NW12      30.18R WCI  17
MINERAL POINT  FAIR      28  25  86 NW15G22   30.14R WCI  17
MADISON        CLOUDY    28  22  78 NW10G20   30.13R WCI  19
MIDDLETON      CLOUDY    29  24  79 NW14G21   30.13R WCI  18
WATERTOWN      CLOUDY    29  26  89 NW13G21   30.11R WCI  19
MONROE         CLOUDY    28  23  80 NW18      30.13R WCI  16
JANESVILLE     CLOUDY    30  30 100 W14         N/A  WCI  20
$$

WIZ051-052-058>065-066-070>072-210400-
SOUTHEAST WISCONSIN

CITY           SKY/WX    TMP DP  RH WIND       PRES   REMARKS
MILWAUKEE      CLOUDY    36  31  82 NW9       30.09R WCI  29
WAUKESHA       CLOUDY    30  27  86 W15       30.09R WCI  19
MILWAUKEE/TIMM CLOUDY    32  27  80 W13       30.09R WCI  22
RACINE         CLOUDY    35  32  88 NW7       30.11R WCI  29
BURLINGTON     CLOUDY    32  29  86 NW13      30.09R WCI  23
KENOSHA        MIX PCPN  35  31  85 W10       30.09R WCI  27
FOND DU LAC    CLOUDY    29  21  72 NW18      30.10R WCI  16
SHEBOYGAN      CLOUDY    30  27  88 NW16G30   30.07R WCI  19
WEST BEND      CLOUDY    30  28  93 W12G21    30.08R WCI  21
JUNEAU         CLOUDY    28  23  84 NW9G18    30.12R WCI  19
$$

LSZ147-162-210400-
LAKE SUPERIOR

STATION/POSITION TIME  TEMP    WIND        PRES    WAVE
                       AIR SEA DIR/SP/G            HT/PER
                 (UTC) (F)     (DEG/KT/KT) (MB)    (FT/S)
DEVILS ISLAND    0100   18     270/ 18/ 23 1019.3R
SAXON HARBOR     0140   18     210/  4/  7 1019.0R
$$

LMZ867-665-643>646-210400-
LAKE MICHIGAN

STATION/POSITION TIME  TEMP    WIND        PRES    WAVE
                       AIR SEA DIR/SP/G            HT/PER
                 (UTC) (F)     (DEG/KT/KT) (MB)    (FT/S)
NORTHPORT PIER   0140   33                 1015.2R
KEWAUNEE LAKESHO 0248   31     280/ 12/ 19 1016.5R
SHEBOYGAN LAKESH 0100   36     280/ 13/ 15 1017.0R
PORT WASHINGTON  0130   35     300/ 11/ 15 1017.6S
MILWAUKEE LAKESH 0250   34     300/ 10/ 13   N/A
KENOSHA   LAKESH 0100   37     280/  5/ 11 1016.6
$$

TC  - TEMPERATURE IN CELSIUS
VSB - VISIBILITY IN STATUTE MILES
WCI - WIND CHILL INDEX
HX  - HEAT INDEX





USA.gov is the U.S. government's official web portal to all federal, state and local government web resources and services.